Location: Flensburg
(54.6357°N, 9.5142°E)
Time: 07:00:02
(UTC+01:00)

ISS - Pass Details

Date: 11 January 2018
Orbit: 402 x 407 km, 51.6° (Epoch: 18 January)

Event Time Altitude Azimuth Distance (km) Brightness Sun altitude
Exits shadow 07:13:57 11° 247° (WSW) 1,416 -1.5 -11.5°
Maximum altitude 07:15:40 15° 214° (SW) 1,210 -1.5 -11.3°
Drops below altitude 10° 07:17:36 10° 178° (S) 1,464 -0.7 -11.0°
Sets 07:20:19 0° 154° (SSE) 2,321 0.9 -10.7°
